Date,TemperatureHighF,TemperatureAvgF,TemperatureLowF,DewpointHighF,DewpointAvgF,DewpointLowF,HumidityHigh,HumidityAvg,HumidityLow,PressureMaxIn,PressureMinIn,WindSpeedMaxMPH,WindSpeedAvgMPH,GustSpeedMaxMPH,PrecipitationSumIn
2013-1-1,50,46,43,49,45,39,97,95,87,30.12,30.00,5,0,10,0.74
2013-1-2,39,39,38,36,35,34,87,86,85,30.25,30.21,4,0,6,0.00
2013-1-3,46,37,28,34,30,26,93,75,46,30.44,30.21,9,1,9,0.00
2013-1-4,48,34,24,31,26,22,95,76,37,30.51,30.41,8,0,10,0.00
2013-1-5,50,38,25,39,30,23,100,76,43,30.48,30.30,4,0,5,0.06
2013-1-6,50,42,35,41,38,31,97,84,60,30.37,30.19,8,1,11,0.01
2013-1-7,53,38,27,36,30,25,93,75,44,30.45,30.33,10,1,12,0.00
2013-1-8,60,43,28,46,37,27,95,81,53,30.43,30.30,7,0,8,0.00
2013-1-9,58,52,46,57,51,43,97,94,88,30.45,30.35,7,0,8,0.13
2013-1-10,65,59,54,61,56,53,97,91,80,30.44,30.10,13,1,19,0.00
2013-1-11,68,65,63,64,62,60,98,92,81,30.14,30.05,10,1,11,0.35
2013-1-12,70,66,62,67,63,60,98,92,76,30.11,29.97,8,0,11,0.03
2013-1-13,70,62,45,65,59,41,97,90,80,30.15,29.92,12,2,18,1.43
2013-1-14,45,41,37,43,40,35,97,93,86,30.31,30.13,12,2,15,1.28
2013-1-15,46,42,40,45,41,38,100,96,92,30.22,29.99,9,1,13,1.25
2013-1-16,45,43,41,44,42,38,98,94,89,30.11,29.97,9,1,13,0.09
2013-1-17,46,42,33,41,35,29,94,78,67,30.42,29.86,17,4,23,0.06
2013-1-18,51,38,28,34,29,14,96,75,23,30.61,30.42,7,0,8,0.00
2013-1-19,55,38,26,37,31,25,96,78,41,30.48,30.25,9,1,15,0.01
2013-1-20,60,43,29,42,34,28,100,74,37,30.28,30.16,9,1,11,0.00
2013-1-21,47,36,28,32,24,17,95,65,32,30.31,30.16,10,1,13,0.00
2013-1-22,38,32,26,20,14,9,77,48,31,30.44,30.30,10,1,14,0.00
2013-1-23,51,40,33,36,25,15,85,57,42,30.43,30.21,10,1,12,0.00
2013-1-24,50,41,33,41,23,12,84,51,31,30.42,30.22,13,2,14,0.00
2013-1-25,41,38,35,40,33,12,96,84,37,30.38,30.15,5,0,5,0.29
2013-1-26,52,40,32,39,34,30,96,81,58,30.38,30.24,7,1,9,0.00
2013-1-27,53,44,31,41,36,29,93,74,59,30.45,30.35,5,0,8,0.00
2013-1-28,60,52,43,53,46,38,92,81,75,30.39,30.24,6,0,8,0.00
2013-1-29,70,56,45,63,54,44,96,90,77,30.24,29.81,13,1,17,0.00
2013-1-30,71,56,39,66,52,27,97,86,61,29.91,29.55,22,3,23,1.63
2013-1-31,48,39,34,33,28,24,87,64,42,30.17,29.90,13,1,19,0.00